﻿測定場所 (Monitoring sites),日付 (Measurement date),時間 (Measurement time),線量率 最大値 (max) μGy/h,線量率 最小値 (min) μGy/h,線量率 平均値 (average) μGy/h,
八王子 (Hachioji),2013-03-03,23:01～24:00,0.0396,0.0352,0.0369,
八王子 (Hachioji),2013-03-03,22:01～23:00,0.0403,0.0351,0.0374,
八王子 (Hachioji),2013-03-03,21:01～22:00,0.0399,0.0352,0.0376,
八王子 (Hachioji),2013-03-03,20:01～21:00,0.0396,0.0345,0.0369,
八王子 (Hachioji),2013-03-03,19:01～20:00,0.0401,0.0353,0.0371,
八王子 (Hachioji),2013-03-03,18:01～19:00,0.0396,0.0349,0.0369,
八王子 (Hachioji),2013-03-03,17:01～18:00,0.0392,0.0351,0.0368,
八王子 (Hachioji),2013-03-03,16:01～17:00,0.0396,0.0349,0.0370,
八王子 (Hachioji),2013-03-03,15:01～16:00,0.0419,0.0347,0.0371,
八王子 (Hachioji),2013-03-03,14:01～15:00,0.0400,0.0351,0.0369,
八王子 (Hachioji),2013-03-03,13:01～14:00,0.0403,0.0348,0.0369,
八王子 (Hachioji),2013-03-03,12:01～13:00,0.0391,0.0348,0.0368,
八王子 (Hachioji),2013-03-03,11:01～12:00,0.0419,0.0341,0.0369,
八王子 (Hachioji),2013-03-03,10:01～11:00,0.0404,0.0348,0.0370,
八王子 (Hachioji),2013-03-03,09:01～10:00,0.0398,0.0351,0.0367,
八王子 (Hachioji),2013-03-03,08:01～09:00,0.0396,0.0346,0.0368,
八王子 (Hachioji),2013-03-03,07:01～08:00,0.0407,0.0355,0.0375,
八王子 (Hachioji),2013-03-03,06:01～07:00,0.0413,0.0353,0.0374,
八王子 (Hachioji),2013-03-03,05:01～06:00,0.0404,0.0350,0.0373,
八王子 (Hachioji),2013-03-03,04:01～05:00,0.0410,0.0356,0.0378,
八王子 (Hachioji),2013-03-03,03:01～04:00,0.0392,0.0352,0.0370,
八王子 (Hachioji),2013-03-03,02:01～03:00,0.0407,0.0358,0.0374,
八王子 (Hachioji),2013-03-03,01:01～02:00,0.0394,0.0351,0.0372,
八王子 (Hachioji),2013-03-03,00:01～01:00,0.0407,0.0355,0.0376,
八王子 (Hachioji),2013-03-02,23:01～24:00,0.0408,0.0352,0.0373,
八王子 (Hachioji),2013-03-02,22:01～23:00,0.0411,0.0348,0.0374,
八王子 (Hachioji),2013-03-02,21:01～22:00,0.0410,0.0352,0.0374,
八王子 (Hachioji),2013-03-02,20:01～21:00,0.0399,0.0342,0.0372,
八王子 (Hachioji),2013-03-02,19:01～20:00,0.0412,0.0353,0.0375,
八王子 (Hachioji),2013-03-02,18:01～19:00,0.0413,0.0359,0.0379,
八王子 (Hachioji),2013-03-02,17:01～18:00,0.0402,0.0355,0.0372,
八王子 (Hachioji),2013-03-02,16:01～17:00,0.0413,0.0357,0.0374,
八王子 (Hachioji),2013-03-02,15:01～16:00,0.0428,0.0354,0.0375,
八王子 (Hachioji),2013-03-02,14:01～15:00,0.0415,0.0350,0.0374,
八王子 (Hachioji),2013-03-02,13:01～14:00,0.0393,0.0355,0.0372,
八王子 (Hachioji),2013-03-02,12:01～13:00,0.0418,0.0349,0.0376,
八王子 (Hachioji),2013-03-02,11:01～12:00,0.0405,0.0349,0.0374,
八王子 (Hachioji),2013-03-02,10:01～11:00,0.0407,0.0351,0.0374,
八王子 (Hachioji),2013-03-02,09:01～10:00,0.0413,0.0341,0.0372,
八王子 (Hachioji),2013-03-02,08:01～09:00,0.0400,0.0351,0.0370,
八王子 (Hachioji),2013-03-02,07:01～08:00,0.0396,0.0352,0.0367,
八王子 (Hachioji),2013-03-02,06:01～07:00,0.0402,0.0351,0.0369,
八王子 (Hachioji),2013-03-02,05:01～06:00,0.0396,0.0349,0.0368,
八王子 (Hachioji),2013-03-02,04:01～05:00,0.0395,0.0348,0.0367,
八王子 (Hachioji),2013-03-02,03:01～04:00,0.0418,0.0349,0.0369,
八王子 (Hachioji),2013-03-02,02:01～03:00,0.0400,0.0351,0.0367,
八王子 (Hachioji),2013-03-02,01:01～02:00,0.0394,0.0348,0.0367,
八王子 (Hachioji),2013-03-02,00:01～01:00,0.0436,0.0350,0.0377,
八王子 (Hachioji),2013-03-01,23:01～24:00,0.0472,0.0364,0.0408,
八王子 (Hachioji),2013-03-01,22:01～23:00,0.0554,0.0426,0.0495,
八王子 (Hachioji),2013-03-01,21:01～22:00,0.0564,0.0471,0.0515,
八王子 (Hachioji),2013-03-01,20:01～21:00,0.0502,0.0383,0.0446,
八王子 (Hachioji),2013-03-01,19:01～20:00,0.0430,0.0355,0.0380,
八王子 (Hachioji),2013-03-01,18:01～19:00,0.0400,0.0348,0.0369,
八王子 (Hachioji),2013-03-01,17:01～18:00,0.0385,0.0339,0.0364,
八王子 (Hachioji),2013-03-01,16:01～17:00,0.0409,0.0340,0.0363,
八王子 (Hachioji),2013-03-01,15:01～16:00,0.0397,0.0347,0.0362,
八王子 (Hachioji),2013-03-01,14:01～15:00,0.0388,0.0346,0.0363,
八王子 (Hachioji),2013-03-01,13:01～14:00,0.0390,0.0340,0.0363,
八王子 (Hachioji),2013-03-01,12:01～13:00,0.0398,0.0335,0.0363,
八王子 (Hachioji),2013-03-01,11:01～12:00,0.0390,0.0345,0.0364,
八王子 (Hachioji),2013-03-01,10:01～11:00,0.0403,0.0344,0.0363,
八王子 (Hachioji),2013-03-01,09:01～10:00,0.0394,0.0340,0.0362,
八王子 (Hachioji),2013-03-01,08:01～09:00,0.0387,0.0348,0.0365,
八王子 (Hachioji),2013-03-01,07:01～08:00,0.0418,0.0355,0.0373,
八王子 (Hachioji),2013-03-01,06:01～07:00,0.0413,0.0354,0.0379,
八王子 (Hachioji),2013-03-01,05:01～06:00,0.0426,0.0353,0.0376,
八王子 (Hachioji),2013-03-01,04:01～05:00,0.0406,0.0352,0.0375,
八王子 (Hachioji),2013-03-01,03:01～04:00,0.0421,0.0349,0.0378,
八王子 (Hachioji),2013-03-01,02:01～03:00,0.0409,0.0352,0.0374,
八王子 (Hachioji),2013-03-01,01:01～02:00,0.0407,0.0352,0.0375,
八王子 (Hachioji),2013-03-01,00:01～01:00,0.0395,0.0347,0.0366,
八王子 (Hachioji),2013-02-28,23:01～24:00,0.0408,0.0347,0.0372,
八王子 (Hachioji),2013-02-28,22:01～23:00,0.0406,0.0353,0.0368,
八王子 (Hachioji),2013-02-28,21:01～22:00,0.0398,0.0336,0.0369,
八王子 (Hachioji),2013-02-28,20:01～21:00,0.0394,0.0340,0.0369,
八王子 (Hachioji),2013-02-28,19:01～20:00,0.0414,0.0341,0.0367,
八王子 (Hachioji),2013-02-28,18:01～19:00,0.0397,0.0348,0.0365,
八王子 (Hachioji),2013-02-28,17:01～18:00,0.0388,0.0337,0.0364,
八王子 (Hachioji),2013-02-28,16:01～17:00,0.0386,0.0338,0.0364,
八王子 (Hachioji),2013-02-28,15:01～16:00,0.0398,0.0349,0.0365,
八王子 (Hachioji),2013-02-28,14:01～15:00,0.0389,0.0341,0.0364,
八王子 (Hachioji),2013-02-28,13:01～14:00,0.0397,0.0343,0.0367,
八王子 (Hachioji),2013-02-28,12:01～13:00,0.0400,0.0344,0.0368,
八王子 (Hachioji),2013-02-28,11:01～12:00,0.0392,0.0340,0.0369,
八王子 (Hachioji),2013-02-28,10:01～11:00,0.0395,0.0351,0.0370,
八王子 (Hachioji),2013-02-28,09:01～10:00,0.0412,0.0356,0.0374,
八王子 (Hachioji),2013-02-28,08:01～09:00,0.0408,0.0354,0.0375,
八王子 (Hachioji),2013-02-28,07:01～08:00,0.0422,0.0357,0.0380,
八王子 (Hachioji),2013-02-28,06:01～07:00,0.0407,0.0357,0.0376,
八王子 (Hachioji),2013-02-28,05:01～06:00,0.0407,0.0355,0.0377,
八王子 (Hachioji),2013-02-28,04:01～05:00,0.0408,0.0360,0.0375,
八王子 (Hachioji),2013-02-28,03:01～04:00,0.0408,0.0352,0.0378,
八王子 (Hachioji),2013-02-28,02:01～03:00,0.0409,0.0356,0.0378,
八王子 (Hachioji),2013-02-28,01:01～02:00,0.0409,0.0356,0.0377,
八王子 (Hachioji),2013-02-28,00:01～01:00,0.0411,0.0359,0.0379,
八王子 (Hachioji),2013-02-27,23:01～24:00,0.0412,0.0348,0.0373,
八王子 (Hachioji),2013-02-27,22:01～23:00,0.0400,0.0353,0.0370,
八王子 (Hachioji),2013-02-27,21:01～22:00,0.0393,0.0348,0.0369,
八王子 (Hachioji),2013-02-27,20:01～21:00,0.0401,0.0344,0.0365,
八王子 (Hachioji),2013-02-27,19:01～20:00,0.0399,0.0350,0.0367,
八王子 (Hachioji),2013-02-27,18:01～19:00,0.0398,0.0346,0.0365,
八王子 (Hachioji),2013-02-27,17:01～18:00,0.0399,0.0339,0.0366,
八王子 (Hachioji),2013-02-27,16:01～17:00,0.0394,0.0339,0.0366,
八王子 (Hachioji),2013-02-27,15:01～16:00,0.0383,0.0347,0.0364,
八王子 (Hachioji),2013-02-27,14:01～15:00,0.0393,0.0344,0.0366,
八王子 (Hachioji),2013-02-27,13:01～14:00,0.0384,0.0354,0.0366,
八王子 (Hachioji),2013-02-27,12:01～13:00,0.0387,0.0348,0.0364,
八王子 (Hachioji),2013-02-27,11:01～12:00,0.0392,0.0353,0.0366,
八王子 (Hachioji),2013-02-27,10:01～11:00,0.0395,0.0350,0.0368,
八王子 (Hachioji),2013-02-27,09:01～10:00,0.0397,0.0356,0.0373,
八王子 (Hachioji),2013-02-27,08:01～09:00,0.0414,0.0357,0.0377,
八王子 (Hachioji),2013-02-27,07:01～08:00,0.0416,0.0363,0.0388,
八王子 (Hachioji),2013-02-27,06:01～07:00,0.0440,0.0370,0.0403,
八王子 (Hachioji),2013-02-27,05:01～06:00,0.0452,0.0387,0.0413,
八王子 (Hachioji),2013-02-27,04:01～05:00,0.0459,0.0370,0.0408,
八王子 (Hachioji),2013-02-27,03:01～04:00,0.0419,0.0359,0.0383,
八王子 (Hachioji),2013-02-27,02:01～03:00,0.0422,0.0357,0.0378,
八王子 (Hachioji),2013-02-27,01:01～02:00,0.0408,0.0357,0.0380,
八王子 (Hachioji),2013-02-27,00:01～01:00,0.0414,0.0359,0.0380,
八王子 (Hachioji),2013-02-26,23:01～24:00,0.0396,0.0356,0.0377,
八王子 (Hachioji),2013-02-26,22:01～23:00,0.0398,0.0349,0.0373,
八王子 (Hachioji),2013-02-26,21:01～22:00,0.0393,0.0340,0.0366,
八王子 (Hachioji),2013-02-26,20:01～21:00,0.0392,0.0347,0.0366,
八王子 (Hachioji),2013-02-26,19:01～20:00,0.0392,0.0349,0.0365,
八王子 (Hachioji),2013-02-26,18:01～19:00,0.0394,0.0346,0.0365,
八王子 (Hachioji),2013-02-26,17:01～18:00,0.0392,0.0343,0.0364,
八王子 (Hachioji),2013-02-26,16:01～17:00,0.0400,0.0346,0.0366,
八王子 (Hachioji),2013-02-26,15:01～16:00,0.0394,0.0352,0.0367,
八王子 (Hachioji),2013-02-26,14:01～15:00,0.0390,0.0349,0.0366,
八王子 (Hachioji),2013-02-26,13:01～14:00,0.0389,0.0353,0.0366,
八王子 (Hachioji),2013-02-26,12:01～13:00,0.0406,0.0348,0.0368,
八王子 (Hachioji),2013-02-26,11:01～12:00,0.0395,0.0342,0.0367,
八王子 (Hachioji),2013-02-26,10:01～11:00,0.0387,0.0350,0.0365,
八王子 (Hachioji),2013-02-26,09:01～10:00,0.0405,0.0346,0.0377,
八王子 (Hachioji),2013-02-26,08:01～09:00,0.0417,0.0361,0.0386,
八王子 (Hachioji),2013-02-26,07:01～08:00,0.0429,0.0354,0.0389,
八王子 (Hachioji),2013-02-26,06:01～07:00,0.0419,0.0360,0.0386,
八王子 (Hachioji),2013-02-26,05:01～06:00,0.0424,0.0355,0.0383,
八王子 (Hachioji),2013-02-26,04:01～05:00,0.0415,0.0352,0.0375,
八王子 (Hachioji),2013-02-26,03:01～04:00,0.0403,0.0344,0.0375,
八王子 (Hachioji),2013-02-26,02:01～03:00,0.0394,0.0343,0.0373,
八王子 (Hachioji),2013-02-26,01:01～02:00,0.0412,0.0347,0.0373,
八王子 (Hachioji),2013-02-26,00:01～01:00,0.0421,0.0356,0.0375,
八王子 (Hachioji),2013-02-25,23:01～24:00,0.0403,0.0343,0.0372,
八王子 (Hachioji),2013-02-25,22:01～23:00,0.0403,0.0345,0.0365,
八王子 (Hachioji),2013-02-25,21:01～22:00,0.0403,0.0343,0.0364,
八王子 (Hachioji),2013-02-25,20:01～21:00,0.0387,0.0335,0.0364,
八王子 (Hachioji),2013-02-25,19:01～20:00,0.0401,0.0347,0.0364,
八王子 (Hachioji),2013-02-25,18:01～19:00,0.0397,0.0342,0.0362,
八王子 (Hachioji),2013-02-25,17:01～18:00,0.0392,0.0337,0.0362,
八王子 (Hachioji),2013-02-25,16:01～17:00,0.0385,0.0340,0.0364,
八王子 (Hachioji),2013-02-25,15:01～16:00,0.0389,0.0345,0.0367,
八王子 (Hachioji),2013-02-25,14:01～15:00,0.0400,0.0350,0.0369,
八王子 (Hachioji),2013-02-25,13:01～14:00,0.0397,0.0345,0.0367,
八王子 (Hachioji),2013-02-25,12:01～13:00,0.0403,0.0343,0.0367,
八王子 (Hachioji),2013-02-25,11:01～12:00,0.0399,0.0344,0.0366,
八王子 (Hachioji),2013-02-25,10:01～11:00,0.0405,0.0346,0.0367,
八王子 (Hachioji),2013-02-25,09:01～10:00,0.0391,0.0347,0.0368,
八王子 (Hachioji),2013-02-25,08:01～09:00,0.0399,0.0343,0.0369,
八王子 (Hachioji),2013-02-25,07:01～08:00,0.0398,0.0356,0.0371,
八王子 (Hachioji),2013-02-25,06:01～07:00,0.0401,0.0342,0.0364,
八王子 (Hachioji),2013-02-25,05:01～06:00,0.0390,0.0340,0.0363,
八王子 (Hachioji),2013-02-25,04:01～05:00,0.0396,0.0348,0.0366,
八王子 (Hachioji),2013-02-25,03:01～04:00,0.0397,0.0347,0.0366,
八王子 (Hachioji),2013-02-25,02:01～03:00,0.0388,0.0342,0.0364,
八王子 (Hachioji),2013-02-25,01:01～02:00,0.0388,0.0347,0.0366,
八王子 (Hachioji),2013-02-25,00:01～01:00,0.0395,0.0350,0.0366,
